Wind_Speed
20 14 11 11 11 13 12 12 12 14 17 21 24 28 32 35 37 40 41 42 43 46 47 46 44 42 42 41 40 39 39 39 39 38 39 40 39 40 39 39 41 42 42
13 9 9 11 13 11 11 13 14 17 20 25 28 33 36 38 40 42 43 43 47 48 47 46 45 44 43 42 40 37 35 35 36 37 39 41 43 45 45 45 45 47 48
9 9 11 14 14 12 14 15 18 22 25 29 33 36 38 40 41 42 45 46 46 47 47 47 47 47 46 42 38 38 39 40 41 42 43 45 46 49 52 53 53 53 54
11 10 13 14 15 13 14 18 22 26 29 32 35 38 38 38 40 44 44 45 47 49 47 47 47 45 41 41 41 43 45 46 48 49 50 51 53 54 55 57 60 62 62
12 12 12 12 13 14 18 22 26 30 32 35 37 39 38 41 43 43 44 44 47 50 50 47 46 44 43 44 46 49 51 52 53 55 57 58 59 60 62 63 63 65 68
11 11 12 13 16 19 21 26 29 32 34 38 39 37 41 44 45 45 46 46 46 48 49 48 47 47 46 49 52 53 56 57 58 60 63 65 67 68 68 68 69 70 71
13 15 17 18 20 22 25 28 31 33 36 41 39 41 45 42 45 46 49 50 49 49 49 48 51 52 53 56 56 58 61 64 65 68 70 73 75 76 77 78 77 78 79
17 18 20 21 24 27 31 35 41 39 42 43 41 44 47 51 51 49 48 49 49 49 49 51 52 54 57 60 62 63 65 69 71 74 76 78 80 82 82 82 83 82 83
17 21 25 29 34 34 38 40 39 39 42 43 43 48 52 54 56 59 57 52 51 51 54 56 57 59 61 65 68 70 71 74 78 81 83 85 87 89 91 90 86 83 83
22 26 26 30 30 35 38 39 40 42 46 50 51 53 56 56 58 60 62 61 57 54 57 59 61 64 67 71 75 76 76 80 83 86 88 90 92 92 85 78 73 72 73
21 24 27 31 35 38 41 41 43 46 47 53 56 59 58 57 57 59 58 58 62 63 62 61 63 69 74 78 80 81 81 84 87 88 90 91 87 76 70 69 70 69 68
21 27 29 33 35 39 42 42 42 46 55 55 59 61 60 61 62 62 59 59 63 64 68 68 70 75 80 80 80 84 82 84 88 89 89 85 72 68 68 69 67 62 60
27 30 32 33 35 39 40 47 49 54 57 58 66 62 61 62 62 60 61 63 66 69 72 75 77 78 81 80 80 82 83 85 87 86 78 68 64 67 69 65 58 55 54
29 32 31 32 37 39 43 48 52 56 58 62 63 60 61 65 66 65 64 67 70 71 74 77 80 86 87 84 81 83 84 85 82 75 68 61 62 67 65 57 55 54 53
30 31 32 36 38 41 42 47 57 63 60 67 65 60 63 67 69 66 65 69 68 71 77 78 85 83 83 83 84 84 85 80 71 66 61 59 62 65 58 54 53 51 50
32 34 35 38 41 42 48 55 60 60 65 66 63 63 66 68 65 66 71 68 71 81 84 87 83 84 83 83 83 80 76 70 63 60 57 57 61 60 54 52 50 49 48
35 37 38 42 45 48 50 55 55 59 59 61 65 63 65 65 68 71 73 74 81 87 88 85 85 83 84 83 82 78 68 62 61 59 56 57 61 56 51 50 47 45 45
38 40 41 43 46 50 51 53 58 58 57 64 67 65 65 66 69 75 78 83 86 88 87 85 83 83 83 80 75 69 60 58 58 57 55 57 59 51 51 48 46 43 40
41 42 46 48 50 51 52 54 57 60 60 56 70 76 77 70 73 79 81 83 85 86 85 85 83 82 80 73 68 61 56 55 55 55 55 57 56 48 47 46 43 39 37
44 46 48 49 51 53 56 55 48 60 51 69 67 73 74 72 75 78 81 83 83 84 84 84 84 80 73 66 60 56 54 55 53 54 56 58 54 48 45 41 39 38 33
46 48 50 51 54 57 59 58 60 65 65 68 67 68 69 71 75 79 81 81 83 84 84 84 80 72 65 59 58 57 57 55 55 57 56 56 51 47 45 42 38 33 31
49 52 54 56 59 60 61 63 66 67 67 66 66 69 72 75 77 79 79 81 83 82 81 74 71 66 60 59 58 59 57 57 56 57 57 53 48 44 42 42 39 34 29
53 55 57 59 62 63 64 66 67 67 65 65 69 72 74 77 81 83 84 83 81 81 79 73 68 63 63 62 62 61 60 59 57 55 55 49 45 41 41 39 38 33 28
55 57 59 61 63 65 65 66 66 66 66 68 71 74 79 81 83 84 84 85 85 84 77 72 67 62 65 63 64 63 61 59 55 53 51 45 41 38 39 37 37 33 28
57 59 61 64 65 65 66 67 66 66 68 71 75 79 82 85 84 84 86 86 84 81 77 73 67 63 62 62 61 62 58 57 52 48 45 42 38 37 37 35 36 31 27
59 61 63 64 64 65 66 66 68 70 72 75 79 82 85 86 85 85 85 84 83 76 73 73 72 68 63 59 55 55 53 51 49 44 40 38 35 37 35 33 33 33 27
Wind_Direction
191 157 198 220 239 249 259 241 245 273 292 296 303 309 308 307 309 310 310 309 308 307 304 301 300 299 297 295 293 292 291 290 290 291 293 294 293 292 289 288 286 284 280
163 188 208 228 241 235 235 254 271 286 297 304 309 305 305 308 310 311 309 308 305 303 301 301 299 297 296 295 293 292 291 290 289 289 288 288 288 288 286 285 284 282 281
177 205 239 245 251 238 254 272 293 300 301 304 303 305 307 309 311 311 310 308 304 302 301 300 299 296 294 292 291 291 291 290 289 288 285 284 283 283 283 283 281 279 278
210 228 246 241 234 249 277 290 294 295 297 300 302 305 305 307 307 309 309 307 303 301 301 301 297 296 294 292 292 293 294 293 292 291 289 288 286 283 279 275 275 274 272
224 233 221 225 248 267 274 286 290 289 296 299 302 304 306 306 308 306 306 303 301 300 299 300 299 296 294 292 294 295 294 294 293 292 291 289 287 284 282 277 271 267 266
241 226 229 241 253 264 276 280 288 297 300 304 302 302 304 306 307 306 304 304 304 300 302 303 299 296 292 296 297 299 298 297 295 294 293 292 290 289 285 281 277 273 268
228 233 241 250 261 271 276 285 296 299 304 307 304 304 303 303 305 309 309 309 310 306 303 303 302 301 296 296 298 300 301 301 300 299 299 299 297 295 292 288 283 278 272
230 243 255 264 269 274 280 287 294 296 298 306 304 304 305 310 310 311 313 311 308 304 301 301 301 302 304 304 301 300 303 305 304 302 300 299 298 296 293 289 283 277 271
255 263 267 269 268 275 281 286 295 300 302 305 304 306 310 312 311 311 312 312 308 303 303 304 303 304 305 306 306 306 306 305 304 304 304 304 303 301 299 295 289 280 271
256 263 270 272 277 271 286 291 297 300 303 309 307 309 310 309 311 312 311 309 306 302 302 304 306 308 309 310 310 309 309 308 308 309 308 307 306 305 301 293 287 280 273
267 277 286 286 286 289 289 291 299 301 305 309 309 310 308 309 309 310 309 306 305 304 304 305 306 309 310 311 311 311 311 311 311 311 310 310 309 302 295 291 288 284 277
280 289 290 285 284 284 287 293 297 303 305 309 312 310 308 308 310 309 307 305 303 304 306 306 306 306 307 310 312 313 313 313 312 312 313 310 304 298 298 297 292 286 281
294 290 292 293 290 290 288 296 295 301 302 306 309 307 306 306 308 307 305 304 306 306 306 306 305 305 308 312 313 314 314 314 314 313 310 305 299 302 304 300 294 288 282
289 290 292 292 293 291 290 295 297 300 298 303 306 305 306 305 306 306 305 307 307 307 306 305 304 306 310 313 313 314 314 314 313 310 308 304 303 306 306 299 295 290 286
285 292 291 290 290 292 295 287 295 295 291 299 303 304 304 305 306 305 304 305 303 303 306 304 310 312 313 313 314 314 314 313 310 308 306 305 308 309 304 299 297 293 287
295 292 289 286 289 291 293 290 291 293 297 299 302 301 302 305 304 303 301 303 305 308 308 310 312 311 312 312 313 314 313 310 308 306 306 307 310 308 303 302 298 294 288
296 293 289 294 296 297 296 291 295 297 301 301 297 297 299 304 303 299 299 298 304 307 309 310 310 310 311 312 313 313 311 307 307 307 307 310 312 310 305 303 300 295 287
296 293 295 294 297 299 297 297 297 300 301 301 295 292 303 304 300 302 303 305 307 308 308 308 309 310 311 312 312 311 309 308 307 307 308 312 313 310 306 306 304 300 290
296 298 304 302 300 299 300 299 300 304 306 284 292 294 302 304 302 305 306 307 307 307 307 308 309 309 311 312 311 309 308 308 308 307 309 312 313 308 308 309 307 301 292
298 300 301 301 301 304 303 306 294 301 285 295 294 294 301 303 303 306 307 308 307 307 307 308 309 310 313 311 308 309 308 307 308 310 313 313 313 308 310 307 309 303 293
298 299 301 303 303 302 302 300 291 297 295 297 299 301 303 304 307 307 307 307 307 308 309 309 309 311 311 307 308 309 309 308 310 310 312 312 311 308 309 310 311 305 292
300 301 302 302 302 302 302 301 300 301 301 301 302 303 305 307 308 307 307 308 308 307 307 309 310 309 306 304 306 307 308 308 309 310 311 310 307 307 309 309 310 309 298
300 301 301 301 301 301 303 303 303 302 302 302 303 305 307 308 309 310 309 309 307 306 306 309 307 304 301 303 303 304 305 306 307 309 307 307 304 305 307 308 309 308 299
298 298 298 300 302 304 304 304 304 304 303 304 304 306 309 310 310 309 308 307 307 306 307 306 303 299 297 299 299 300 301 302 305 306 304 303 300 302 305 308 307 308 301
296 297 301 303 304 305 307 306 303 302 302 303 307 310 311 312 311 309 307 307 307 307 307 303 299 297 296 297 297 297 299 300 301 302 300 299 299 301 304 307 307 306 301
299 300 303 304 305 306 306 304 301 301 303 308 310 311 311 311 310 308 307 306 306 306 302 299 298 298 297 297 296 295 296 298 299 299 294 295 298 300 304 307 308 306 303
Height
5781 5785 5791 5795 5798 5800 5801 5803 5802 5803 5802 5802 5800 5798 5797 5796 5793 5790 5788 5784 5782 5778 5775 5772 5769 5765 5762 5760 5757 5755 5752 5750 5747 5745 5742 5740 5740 5738 5737 5737 5737 5737 5738
5781 5785 5788 5793 5796 5797 5799 5800 5800 5800 5799 5797 5795 5795 5793 5790 5786 5783 5781 5779 5775 5772 5767 5763 5759 5757 5755 5751 5748 5746 5744 5742 5740 5738 5735 5734 5731 5729 5728 5728 5726 5726 5726
5781 5785 5789 5791 5794 5793 5796 5797 5795 5795 5794 5793 5792 5790 5787 5784 5781 5778 5775 5771 5769 5764 5759 5754 5751 5748 5745 5742 5739 5737 5735 5733 5731 5729 5727 5725 5722 5720 5718 5717 5715 5714 5714
5784 5785 5788 5790 5791 5791 5792 5792 5791 5792 5791 5789 5787 5785 5781 5778 5775 5772 5767 5763 5757 5754 5751 5746 5742 5739 5736 5733 5730 5727 5724 5722 5720 5717 5715 5713 5711 5709 5707 5706 5704 5701 5700
5782 5784 5786 5786 5789 5787 5789 5788 5788 5788 5785 5783 5781 5778 5775 5771 5767 5763 5759 5755 5750 5743 5740 5738 5732 5730 5726 5723 5720 5717 5713 5709 5706 5703 5700 5698 5696 5693 5691 5689 5688 5687 5684
5781 5782 5782 5783 5784 5785 5784 5784 5784 5781 5779 5777 5774 5770 5767 5763 5759 5756 5750 5745 5741 5735 5729 5725 5723 5721 5718 5713 5709 5705 5700 5696 5691 5688 5684 5680 5676 5673 5671 5669 5667 5666 5665
5777 5779 5779 5779 5779 5779 5778 5778 5777 5775 5773 5770 5765 5760 5759 5759 5753 5746 5739 5733 5728 5724 5720 5715 5711 5706 5703 5699 5697 5692 5686 5679 5674 5669 5663 5658 5654 5649 5645 5642 5640 5638 5638
5775 5775 5776 5775 5774 5774 5772 5772 5770 5768 5766 5762 5757 5752 5748 5741 5736 5734 5728 5723 5717 5712 5707 5704 5700 5695 5689 5682 5681 5677 5671 5662 5655 5649 5643 5638 5633 5627 5620 5614 5610 5606 5604
5771 5772 5772 5771 5771 5768 5767 5765 5764 5761 5758 5754 5749 5744 5737 5729 5722 5716 5713 5709 5704 5700 5695 5690 5686 5682 5676 5669 5661 5657 5653 5645 5636 5628 5620 5612 5604 5595 5586 5578 5572 5569 5567
5767 5768 5767 5766 5763 5762 5760 5758 5757 5753 5748 5743 5740 5735 5726 5718 5712 5704 5697 5695 5693 5690 5684 5679 5671 5665 5659 5652 5645 5638 5632 5624 5614 5604 5594 5584 5574 5564 5554 5546 5540 5535 5533
5763 5762 5761 5759 5756 5755 5753 5751 5748 5744 5737 5733 5728 5721 5715 5709 5702 5695 5688 5679 5674 5671 5668 5664 5658 5650 5641 5632 5626 5620 5611 5601 5592 5581 5568 5558 5549 5539 5531 5524 5517 5511 5508
5757 5757 5755 5753 5750 5747 5745 5742 5738 5732 5728 5724 5717 5711 5702 5695 5688 5682 5677 5672 5665 5658 5652 5646 5640 5632 5623 5615 5605 5597 5589 5578 5569 5558 5545 5535 5526 5518 5510 5502 5494 5488 5484
5752 5750 5748 5745 5742 5739 5736 5733 5728 5723 5718 5712 5706 5698 5691 5685 5678 5672 5665 5659 5652 5644 5636 5629 5623 5617 5606 5597 5587 5576 5569 5559 5548 5538 5526 5515 5507 5499 5490 5480 5473 5469 5465
5744 5742 5739 5736 5734 5731 5727 5722 5716 5712 5707 5702 5695 5688 5680 5673 5667 5660 5652 5645 5639 5630 5620 5612 5601 5594 5588 5579 5570 5560 5547 5537 5527 5517 5507 5499 5490 5481 5472 5463 5456 5452 5448
5736 5733 5731 5729 5726 5722 5717 5712 5707 5702 5695 5691 5683 5676 5669 5660 5653 5646 5639 5631 5622 5616 5608 5597 5585 5573 5566 5557 5548 5539 5528 5517 5507 5500 5492 5484 5474 5465 5455 5448 5442 5436 5432
5728 5725 5723 5719 5715 5711 5707 5702 5697 5692 5685 5678 5670 5662 5655 5648 5641 5633 5624 5616 5608 5600 5592 5579 5569 5559 5550 5540 5529 5520 5509 5499 5492 5485 5478 5470 5461 5451 5442 5435 5428 5422 5418
5720 5717 5713 5709 5705 5702 5697 5691 5686 5679 5673 5664 5657 5649 5642 5635 5627 5619 5612 5603 5594 5583 5573 5567 5552 5542 5532 5521 5512 5502 5493 5485 5477 5469 5463 5455 5447 5437 5429 5422 5415 5409 5404
5711 5707 5703 5699 5695 5690 5685 5679 5673 5666 5660 5650 5642 5636 5629 5621 5614 5606 5597 5587 5576 5567 5557 5550 5539 5525 5514 5504 5495 5486 5479 5471 5463 5456 5450 5442 5434 5426 5416 5410 5403 5397 5392
5700 5696 5691 5687 5683 5677 5672 5666 5660 5654 5647 5638 5630 5624 5616 5606 5599 5590 5580 5571 5560 5551 5539 5528 5520 5508 5498 5488 5479 5471 5465 5459 5451 5443 5437 5429 5423 5415 5406 5399 5392 5386 5381
5690 5686 5681 5675 5669 5665 5658 5653 5647 5641 5634 5626 5618 5610 5601 5592 5583 5573 5563 5553 5542 5530 5520 5509 5499 5490 5480 5472 5463 5458 5453 5445 5439 5431 5424 5415 5409 5401 5396 5391 5383 5376 5372
5680 5676 5670 5665 5659 5653 5647 5641 5636 5629 5621 5612 5603 5595 5587 5578 5568 5557 5545 5535 5522 5510 5497 5487 5480 5473 5466 5457 5449 5444 5438 5433 5427 5418 5412 5404 5398 5390 5385 5379 5373 5369 5364
5669 5663 5658 5653 5646 5640 5635 5628 5620 5613 5605 5597 5589 5580 5570 5561 5552 5541 5530 5516 5505 5495 5485 5473 5462 5455 5450 5443 5438 5432 5425 5420 5415 5405 5399 5395 5386 5382 5376 5370 5364 5360 5355
5658 5652 5647 5641 5634 5628 5622 5614 5606 5598 5591 5583 5573 5564 5554 5543 5531 5518 5508 5503 5493 5479 5468 5462 5452 5444 5433 5430 5423 5418 5412 5406 5401 5395 5387 5384 5376 5372 5367 5362 5356 5352 5348
5647 5641 5635 5629 5621 5612 5606 5598 5590 5582 5575 5567 5558 5548 5537 5526 5513 5499 5487 5476 5468 5463 5456 5447 5435 5431 5422 5417 5409 5403 5399 5393 5389 5382 5375 5373 5368 5364 5359 5353 5347 5343 5340
5635 5628 5621 5613 5605 5597 5588 5580 5574 5567 5560 5551 5542 5530 5518 5506 5494 5481 5467 5457 5449 5440 5427 5419 5419 5416 5409 5402 5395 5387 5384 5379 5377 5371 5364 5361 5358 5354 5350 5346 5339 5335 5332
5620 5613 5606 5598 5590 5581 5574 5566 5558 5552 5545 5537 5526 5513 5500 5486 5475 5464 5449 5435 5425 5422 5412 5400 5392 5391 5390 5386 5382 5375 5371 5367 5362 5360 5354 5352 5348 5344 5343 5337 5332 5326 5324